Cas;Teplota [C];Tlak [hPa];Svetlo [lux];Rychlost vetru [km/h];Smer vetru [stupne]
2022-06-21 00:00:01;11,57;1010,77;7;0;0
2022-06-21 00:01:01;11,32;1010,76;7;0;0
2022-06-21 00:02:01;11,36;1010,82;7;0;0
2022-06-21 00:03:01;11,52;1010,8;7;0;0
2022-06-21 00:04:02;11,39;1010,78;7;0;0
2022-06-21 00:05:01;11,57;1010,83;7;0;0
2022-06-21 00:06:01;11,34;1010,83;6;0;0
2022-06-21 00:07:02;11,35;1010,95;7;0;0
2022-06-21 00:08:01;11,37;1011,03;6;0;0
2022-06-21 00:09:01;11,39;1011,03;7;0;0
2022-06-21 00:10:01;11,45;1011,03;6;0;0
2022-06-21 00:11:01;11,35;1011,07;7;0;0
2022-06-21 00:12:01;11,46;1011,09;7;0;0
2022-06-21 00:13:02;11,41;1011,12;6;0;0
2022-06-21 00:14:01;11,42;1011,06;6;0;0
2022-06-21 00:15:01;11,26;1011,16;6;0;0
2022-06-21 00:16:01;11,35;1011,2;5;0;0
2022-06-21 00:17:01;11,49;1011,18;6;0;0
2022-06-21 00:18:01;11,4;1011,12;7;0;0
2022-06-21 00:19:01;11,57;1011,07;6;0;0
2022-06-21 00:20:01;11,51;1011,14;6;0;0
2022-06-21 00:21:01;11,49;1011,17;6;0;0
2022-06-21 00:22:02;11,38;1011,08;7;0;0
2022-06-21 00:23:01;11,42;1011,12;7;0;0
2022-06-21 00:24:01;11,49;1011,13;6;0;0
2022-06-21 00:25:01;11,36;1011,09;7;0;0
2022-06-21 00:26:01;11,46;1011,17;6;0;0
2022-06-21 00:27:01;11,37;1011,26;7;0;0
2022-06-21 00:28:01;11,35;1011,34;6;0;0
2022-06-21 00:29:01;11,36;1011,4;6;0;0
2022-06-21 00:30:01;11,44;1011,4;7;0;0
2022-06-21 00:31:01;11,46;1011,46;7;0;0
2022-06-21 00:32:01;11,25;1011,55;6;0;0
2022-06-21 00:33:01;11,4;1011,53;7;0;0
2022-06-21 00:34:01;11,39;1011,54;6;0;0
2022-06-21 00:35:01;11,43;1011,51;6;0;0
2022-06-21 00:36:01;11,49;1011,5;5;0;0
2022-06-21 00:37:01;11,42;1011,47;7;0;0
2022-06-21 00:38:01;11,4;1011,51;6;0;0
2022-06-21 00:39:01;11,41;1011,38;6;0;0
2022-06-21 00:40:01;11,42;1011,38;6;0;0
2022-06-21 00:41:01;11,4;1011,36;7;0;0
2022-06-21 00:42:01;11,38;1011,27;5;0;0
2022-06-21 00:43:01;11,45;1011,34;7;0;0
2022-06-21 00:44:02;11,3;1011,36;7;0;0
2022-06-21 00:45:01;11,32;1011,29;6;0;0
2022-06-21 00:46:02;11,43;1011,39;6;0;0
2022-06-21 00:47:01;11,41;1011,32;6;0;0
2022-06-21 00:48:01;11,46;1011,38;6;0;0
2022-06-21 00:49:01;11,36;1011,38;7;0;0
2022-06-21 00:50:01;11,5;1011,32;6;0;0
2022-06-21 00:51:01;11,39;1011,33;5;0;0
2022-06-21 00:52:01;11,36;1011,32;7;0;0
2022-06-21 00:53:01;11,3;1011,21;7;0;0
2022-06-21 00:54:01;11,1;1011,08;6;0;0
2022-06-21 00:55:01;11,25;1011,17;6;0;0
2022-06-21 00:56:01;11,36;1011,12;7;0;0
2022-06-21 00:57:01;11,32;1011,09;7;0;0
2022-06-21 00:58:01;11,35;1011,07;6;0;0
2022-06-21 00:59:01;11,33;1011,14;6;0;0
2022-06-21 01:00:01;11,22;1011,25;7;0;0
2022-06-21 01:01:01;11,12;1011,18;5;0;0
2022-06-21 01:02:01;11,23;1011,23;7;0;0
2022-06-21 01:03:01;11,21;1011,27;7;0;0
2022-06-21 01:04:01;11,25;1011,28;6;0;0
2022-06-21 01:05:01;11,17;1011,32;6;0;0
2022-06-21 01:06:01;11,23;1011,4;7;0;0
2022-06-21 01:07:01;11,12;1011,41;5;0;0
2022-06-21 01:08:01;11,19;1011,43;6;0;0
2022-06-21 01:09:01;11,12;1011,33;7;0;0
2022-06-21 01:10:01;11,13;1011,35;5;0;0
2022-06-21 01:11:01;11,16;1011,39;6;0;0
2022-06-21 01:12:01;11,13;1011,38;6;0;0
2022-06-21 01:13:01;11,1;1011,42;6;0;0
2022-06-21 01:14:01;10,98;1011,49;6;0;0
2022-06-21 01:15:01;10,91;1011,39;5;0;0
2022-06-21 01:16:01;11,1;1011,34;7;0;0
2022-06-21 01:17:01;11,03;1011,44;6;0;0
2022-06-21 01:18:01;11,07;1011,41;6;0;0
2022-06-21 01:19:01;11,07;1011,48;5;0;0
2022-06-21 01:20:01;10,98;1011,42;5;0;0
2022-06-21 01:21:01;11,02;1011,46;5;0;0
2022-06-21 01:22:01;10,94;1011,52;6;0;0
2022-06-21 01:23:02;11,06;1011,51;6;0;0
2022-06-21 01:24:01;11,15;1011,48;6;0;0
2022-06-21 01:25:01;11;1011,61;5;0;0
2022-06-21 01:26:01;11,09;1011,58;6;0;0
2022-06-21 01:27:01;10,96;1011,69;5;0;0
2022-06-21 01:28:01;11,09;1011,7;6;0;0
2022-06-21 01:29:02;10,94;1011,65;6;0;0
2022-06-21 01:30:01;10,93;1011,65;5;0;0
2022-06-21 01:31:01;10,99;1011,6;4;0;0
2022-06-21 01:32:01;11;1011,64;4;0;0
2022-06-21 01:33:01;11,2;1011,62;5;0;0
2022-06-21 01:34:02;10,98;1011,63;6;0;0
2022-06-21 01:35:01;10,96;1011,58;5;0;0
2022-06-21 01:36:01;10,86;1011,57;6;0;0
2022-06-21 01:37:01;10,95;1011,55;5;0;0
2022-06-21 01:38:01;10,99;1011,68;6;0;0
2022-06-21 01:39:02;11,17;1011,63;5;0;0
2022-06-21 01:40:01;11,21;1011,61;6;0;0
2022-06-21 01:41:01;11,23;1011,62;6;0;0
2022-06-21 01:42:01;11,2;1011,65;5;0;0
2022-06-21 01:43:01;11,3;1011,67;6;0;0
2022-06-21 01:44:01;11,31;1011,64;6;0;0
2022-06-21 01:45:02;11,09;1011,61;7;0;0
2022-06-21 01:46:01;11,14;1011,61;6;0;0
2022-06-21 01:47:01;11,33;1011,69;6;0;0
2022-06-21 01:48:01;11,2;1011,64;5;0;0
2022-06-21 01:49:01;11,43;1011,77;5;0;0
2022-06-21 01:50:01;11,26;1011,81;5;0;0
2022-06-21 01:51:02;11,1;1011,78;5;0;0
2022-06-21 01:52:01;11,19;1011,89;5;0;0
2022-06-21 01:53:01;11,21;1011,94;5;0;0
2022-06-21 01:54:01;11,18;1011,93;5;0;0
2022-06-21 01:55:01;11,04;1011,88;5;0;0
2022-06-21 01:56:01;11,09;1011,89;6;0;0
2022-06-21 01:57:01;11,17;1011,86;6;0;0
2022-06-21 01:58:01;11,17;1011,85;6;0;0
2022-06-21 01:59:01;11,08;1011,93;5;0;0
2022-06-21 02:00:01;11,08;1012,06;5;0;0
2022-06-21 02:01:01;11,25;1012,11;5;0;0
2022-06-21 02:02:01;11,15;1012,15;5;0;0
2022-06-21 02:03:01;11,07;1012,1;5;0;0
2022-06-21 02:04:01;11;1012,16;5;0;0
2022-06-21 02:05:01;11,02;1012,09;5;0;0
2022-06-21 02:06:01;10,96;1012,09;5;0;0
2022-06-21 02:07:01;11,03;1012,13;5;0;0
2022-06-21 02:08:01;10,91;1012,11;5;0;0
2022-06-21 02:09:01;11,01;1012,06;5;0;0
2022-06-21 02:10:01;10,79;1011,95;6;0;0
2022-06-21 02:11:01;10,81;1011,99;5;0;0
2022-06-21 02:12:01;10,87;1011,89;5;0;0
2022-06-21 02:13:01;10,75;1011,89;5;0;0
2022-06-21 02:14:01;10,89;1011,96;6;0;0
2022-06-21 02:15:01;10,79;1012,06;6;0;0
2022-06-21 02:16:01;10,95;1011,97;6;0;0
2022-06-21 02:17:01;10,77;1011,89;6;0;0
2022-06-21 02:18:01;10,85;1011,9;5;0;0
2022-06-21 02:19:01;10,82;1011,93;5;0;0
2022-06-21 02:20:01;10,77;1011,94;5;0;0
2022-06-21 02:21:01;10,83;1011,89;6;0;0
2022-06-21 02:22:01;10,9;1011,86;5;0;0
2022-06-21 02:23:01;10,82;1011,97;5;0;0
2022-06-21 02:24:01;10,92;1011,99;5;0;0
2022-06-21 02:25:01;10,88;1011,96;5;0;0
2022-06-21 02:26:01;10,92;1012,08;6;0;0
2022-06-21 02:27:01;11,01;1012,06;4;0;0
2022-06-21 02:28:01;10,96;1012,16;5;0;0
2022-06-21 02:29:01;10,75;1012,27;5;0;0
2022-06-21 02:30:01;10,96;1012,27;4;0;0
2022-06-21 02:31:01;10,72;1012,16;5;0;0
2022-06-21 02:32:01;10,66;1012,18;5;0;0
2022-06-21 02:33:02;10,83;1012,26;5;0;0
2022-06-21 02:34:01;10,7;1012,34;5;0;0
2022-06-21 02:35:01;10,78;1012,24;5;0;0
2022-06-21 02:36:01;10,75;1012,27;5;0;0
2022-06-21 02:37:01;10,68;1012,35;5;0;0
2022-06-21 02:38:01;10,75;1012,37;4;0;0
2022-06-21 02:39:01;10,82;1012,44;5;0;0
2022-06-21 02:40:01;10,72;1012,4;5;0;0
2022-06-21 02:41:01;10,74;1012,27;4;0;0
2022-06-21 02:42:02;10,76;1012,27;4;0;0
2022-06-21 02:43:01;10,94;1012,23;4;0;0
2022-06-21 02:44:01;10,94;1012,19;5;0;0
2022-06-21 02:45:01;10,86;1012,11;4;0;0
2022-06-21 02:46:01;10,8;1012,14;5;0;0
2022-06-21 02:47:01;10,74;1012,16;5;0;0
2022-06-21 02:48:01;10,57;1012,18;5;0;0
2022-06-21 02:49:01;10,76;1012,14;5;0;0
2022-06-21 02:50:01;10,75;1012,13;5;0;0
2022-06-21 02:51:01;10,67;1011,98;5;0;0
2022-06-21 02:52:02;10,99;1011,98;5;0;0
2022-06-21 02:53:01;10,81;1012,11;5;0;0
2022-06-21 02:54:01;10,73;1012,06;6;0;0
2022-06-21 02:55:01;10,69;1012,16;5;0;0
2022-06-21 02:56:01;10,83;1012,25;5;0;0
2022-06-21 02:57:02;10,67;1012,21;6;0;0
2022-06-21 02:58:01;10,69;1012,16;5;0;0
2022-06-21 02:59:01;10,76;1012,18;5;0;0
2022-06-21 03:00:01;10,94;1012,21;5;0;0
2022-06-21 03:01:01;10,81;1012,24;6;0;0
2022-06-21 03:02:01;10,74;1012,19;5;0;0
2022-06-21 03:03:01;10,85;1012,13;5;0;0
2022-06-21 03:04:02;10,93;1012,16;4;0;0
2022-06-21 03:05:01;10,84;1012,16;5;0;0
2022-06-21 03:06:01;10,7;1012,06;5;0;0
2022-06-21 03:07:01;10,71;1012,04;5;0;0
2022-06-21 03:08:01;10,91;1012,08;5;0;0
2022-06-21 03:09:01;10,88;1012,01;5;0;0
2022-06-21 03:10:01;10,68;1012,11;5;0;0
2022-06-21 03:11:01;10,54;1012,13;6;0;0
2022-06-21 03:12:01;10,55;1012,16;4;0;0
2022-06-21 03:13:01;10,62;1012,16;5;0;0
2022-06-21 03:14:01;10,79;1012,2;5;0;0
2022-06-21 03:15:01;10,66;1012,1;5;0;0
2022-06-21 03:16:01;10,78;1011,97;5;0;0
2022-06-21 03:17:01;10,71;1011,88;5;0;0
2022-06-21 03:18:01;10,78;1011,99;4;0;0
2022-06-21 03:19:01;10,7;1011,94;6;0;0
2022-06-21 03:20:01;10,84;1012,03;4;0;0
2022-06-21 03:21:01;10,8;1011,96;5;0;0
2022-06-21 03:22:01;10,68;1012;5;0;0
2022-06-21 03:23:01;10,76;1012,02;5;0;0
2022-06-21 03:24:01;10,68;1012,11;5;0;0
2022-06-21 03:25:01;10,72;1012,13;4;0;0
2022-06-21 03:26:01;10,7;1012,13;5;0;0
2022-06-21 03:27:01;10,65;1012,13;5;0;0
2022-06-21 03:28:01;10,61;1012,14;5;0;0
2022-06-21 03:29:01;10,54;1012,16;4;0;0
2022-06-21 03:30:01;10,55;1012,18;5;0;0
2022-06-21 03:31:01;10,59;1012,19;5;0;0
2022-06-21 03:32:01;10,54;1012,2;5;0;0
2022-06-21 03:33:01;10,41;1012,18;5;0;0
2022-06-21 03:34:01;10,51;1012,23;4;0;0
2022-06-21 03:35:01;10,49;1012,21;5;0;0
2022-06-21 03:36:01;10,51;1012,23;5;0;0
2022-06-21 03:37:01;10,61;1012,14;5;0;0
2022-06-21 03:38:01;10,51;1012,14;4;0;0
2022-06-21 03:39:01;10,79;1012,11;5;0;0
2022-06-21 03:40:01;10,6;1012,05;4;0;0
2022-06-21 03:41:02;10,54;1012,04;4;0;0
2022-06-21 03:42:01;10,52;1012,06;5;0;0
2022-06-21 03:43:01;10,64;1012,1;5;0;0
2022-06-21 03:44:01;10,67;1012,16;5;0;0
2022-06-21 03:45:01;10,7;1012,06;5;0;0
2022-06-21 03:46:01;10,73;1012;5;0;0
2022-06-21 03:47:01;10,6;1012,1;5;0;0
2022-06-21 03:48:01;10,58;1012,03;5;0;0
2022-06-21 03:49:01;10,54;1011,99;4;0;0
2022-06-21 03:50:01;10,59;1011,97;5;0;0
2022-06-21 03:51:01;10,66;1012,05;5;0;0
2022-06-21 03:52:01;10,48;1012,02;5;0;0
2022-06-21 03:53:01;10,58;1012;5;0;0
2022-06-21 03:54:01;10,73;1011,99;6;0;0
2022-06-21 03:55:01;10,81;1012,04;6;0;0
2022-06-21 03:56:01;10,7;1011,96;5;0;0
2022-06-21 03:57:01;10,8;1011,91;6;0;0
2022-06-21 03:58:01;10,96;1011,9;5;0;0
2022-06-21 03:59:01;10,85;1011,98;5;0;0
2022-06-21 04:00:01;11,04;1011,96;7;0;0
2022-06-21 04:01:01;10,83;1011,97;6;0;0
2022-06-21 04:02:01;10,71;1012,03;7;0;0
2022-06-21 04:03:01;10,75;1012,05;8;0;0
2022-06-21 04:04:01;10,74;1012,13;7;0;0
2022-06-21 04:05:01;10,8;1012,06;7;0;0
2022-06-21 04:06:01;10,89;1012,1;7;0;0
2022-06-21 04:07:01;10,73;1012,15;7;0;0
2022-06-21 04:08:02;10,77;1012,07;8;0;0
2022-06-21 04:09:01;10,89;1012,1;8;0;0
2022-06-21 04:10:01;10,88;1012,12;9;0;0
2022-06-21 04:11:02;10,95;1012,19;9;0;0
2022-06-21 04:12:01;10,98;1012,25;10;0;0
2022-06-21 04:13:01;10,99;1012,27;12;0;0
2022-06-21 04:14:01;11,21;1012,21;13;0;0
2022-06-21 04:15:01;10,93;1012,19;15;0;0
2022-06-21 04:16:01;10,76;1012,22;16;0;0
2022-06-21 04:17:01;10,69;1012,22;19;0;0
2022-06-21 04:18:01;10,84;1012,22;21;0;0
2022-06-21 04:19:01;10,89;1012,15;24;0;0
2022-06-21 04:20:02;10,62;1012,22;26;0;0
2022-06-21 04:21:01;10,67;1012,15;31;0;0
2022-06-21 04:22:01;10,59;1012,22;34;0;0
2022-06-21 04:23:01;10,67;1012,24;39;0;0
2022-06-21 04:24:01;10,8;1012,13;45;0;0
2022-06-21 04:25:01;10,87;1012,21;53;0;0
2022-06-21 04:26:01;10,76;1012,1;58;0;0
2022-06-21 04:27:02;10,78;1012,17;64;0;0
2022-06-21 04:28:01;10,88;1012,08;72;0;0
2022-06-21 04:29:01;10,82;1012,14;81;0;0
2022-06-21 04:30:01;10,87;1012,17;88;0;0
2022-06-21 04:31:01;11,09;1012,26;98;0;0
2022-06-21 04:32:02;10,92;1012,22;108;0;0
2022-06-21 04:33:01;10,81;1012,21;119;0;0
2022-06-21 04:34:01;10,91;1012,22;130;0;0
2022-06-21 04:35:02;11,04;1012,12;142;0;0
2022-06-21 04:36:01;11,12;1012,1;153;0;0
2022-06-21 04:37:01;10,99;1012,15;163;0;0
2022-06-21 04:38:01;11,18;1012,16;177;0;0
2022-06-21 04:39:01;11,09;1012,15;191;0;0
2022-06-21 04:40:01;11,23;1012,18;203;0;0
2022-06-21 04:41:02;11,22;1012;221;0;0
2022-06-21 04:42:01;11,19;1012,06;245;0;0
2022-06-21 04:43:01;11,28;1012,03;266;0;0
2022-06-21 04:44:01;11,49;1012,01;282;0;0
2022-06-21 04:45:01;11,34;1012,09;286;0;0
2022-06-21 04:46:01;11,3;1012;292;0;0
2022-06-21 04:47:02;11,33;1012,16;309;0;0
2022-06-21 04:48:01;11,34;1012,21;333;0;0
2022-06-21 04:49:01;11,31;1012,23;348;0;0
2022-06-21 04:50:01;11,46;1012,2;370;0;0
2022-06-21 04:51:01;11,34;1012,16;388;0;0
2022-06-21 04:52:01;11,18;1012,25;402;0;0
2022-06-21 04:53:01;11,33;1012,19;420;0;0
2022-06-21 04:54:01;11,1;1012,24;431;0;0
2022-06-21 04:55:02;11,07;1012,17;443;0;0
2022-06-21 04:56:01;11,04;1012,23;450;0;0
2022-06-21 04:57:01;11,16;1012,18;454;0;0
2022-06-21 04:58:02;11,1;1012,21;477;0;0
2022-06-21 04:59:01;11,18;1012,33;499;0;0
2022-06-21 05:00:01;11,24;1012,31;525;0;0
2022-06-21 05:01:01;11,22;1012,31;559;0;0
2022-06-21 05:02:01;11,1;1012,26;588;0;0
2022-06-21 05:03:01;11,18;1012,28;617;0;0
2022-06-21 05:04:01;11,11;1012,21;630;0;0
2022-06-21 05:05:01;11,24;1012,23;630;0;0
2022-06-21 05:06:01;11,04;1012,07;652;0;0
2022-06-21 05:07:01;11,25;1012,18;676;0;0
2022-06-21 05:08:01;11,23;1012,18;678;0;0
2022-06-21 05:09:01;11,11;1012,27;679;0;0
2022-06-21 05:10:01;11,22;1012,31;681;0;0
2022-06-21 05:11:01;11,34;1012,3;693;0;0
2022-06-21 05:12:01;11,1;1012,25;706;0;0
2022-06-21 05:13:01;11,19;1012,27;724;0;0
2022-06-21 05:14:01;11,1;1012,21;733;0;0
2022-06-21 05:15:01;11,06;1012,19;748;0;0
2022-06-21 05:16:01;11,13;1012,28;764;0;0
2022-06-21 05:17:01;11,21;1012,3;785;0;0
2022-06-21 05:18:01;11,11;1012,17;810;0;0
2022-06-21 05:19:01;11,08;1012,22;817;0;0
2022-06-21 05:20:01;11,08;1012,26;828;0;0
2022-06-21 05:21:01;11,09;1012,3;850;0;0
2022-06-21 05:22:01;11,1;1012,3;895;0;0
2022-06-21 05:23:01;11,02;1012,3;876;0;0
2022-06-21 05:24:01;11,13;1012,3;875;0;0
2022-06-21 05:25:01;10,96;1012,28;874;0;0
2022-06-21 05:26:01;11,15;1012,24;888;0;0
2022-06-21 05:27:01;11,18;1012,29;907;0;0
2022-06-21 05:28:01;11,39;1012,27;931;0;0
2022-06-21 05:29:01;11,29;1012,22;974;0;0
2022-06-21 05:30:01;11,2;1012,17;952;0;0
2022-06-21 05:31:01;11,26;1012,22;911;0;0
2022-06-21 05:32:01;11,31;1012,11;931;0;0
2022-06-21 05:33:01;11,21;1012,08;971;0;0
2022-06-21 05:34:01;11,09;1012,15;1038;0;0
2022-06-21 05:35:01;11,16;1012,17;1080;0;0
2022-06-21 05:36:01;11,33;1012,26;1036;0;0
2022-06-21 05:37:01;11,29;1012,15;1026;0;0
2022-06-21 05:38:01;11,33;1012,19;1040;0;0
2022-06-21 05:39:01;11,3;1012,14;1054;0;0
2022-06-21 05:40:01;11,3;1012,2;1062;0;0
2022-06-21 05:41:01;11,4;1012,21;1076;2,28;232
2022-06-21 05:42:02;11,34;1012,14;1101;0;0
2022-06-21 05:43:01;11,29;1012,1;1116;0;0
2022-06-21 05:44:01;11,28;1012,14;1127;0;0
2022-06-21 05:45:01;11,35;1012,15;1163;0;0
2022-06-21 05:46:01;11,44;1012,19;1174;0;0
2022-06-21 05:47:01;11,3;1012,17;1219;0;0
2022-06-21 05:48:01;11,45;1012,19;1226;0;0
2022-06-21 05:49:01;11,49;1012,19;1187;0;0
2022-06-21 05:50:01;11,4;1012,2;1171;0;0
2022-06-21 05:51:01;11,4;1012,29;1197;0;0
2022-06-21 05:52:01;11,46;1012,24;1240;0;0
2022-06-21 05:53:01;11,44;1012,17;1259;0;0
2022-06-21 05:54:01;11,56;1012,16;1312;0;0
2022-06-21 05:55:01;11,71;1012,15;1321;0;0
2022-06-21 05:56:01;11,61;1012,31;1360;0;0
2022-06-21 05:57:01;11,33;1012,3;1433;0;0
2022-06-21 05:58:01;11,44;1012,29;1508;0;0
2022-06-21 05:59:01;11,42;1012,38;1547;0;0
2022-06-21 06:00:01;11,58;1012,4;1521;0;0
2022-06-21 06:01:01;11,63;1012,42;1511;0;0
2022-06-21 06:02:01;11,71;1012,36;1505;0;0
2022-06-21 06:03:01;11,53;1012,36;1444;0;0
2022-06-21 06:04:01;11,64;1012,3;1434;0;0
2022-06-21 06:05:02;11,61;1012,24;1442;0;0
2022-06-21 06:06:01;11,54;1012,2;1519;0;0
2022-06-21 06:07:01;11,72;1012,28;1554;0;0
2022-06-21 06:08:01;11,74;1012,35;1535;0;0
2022-06-21 06:09:01;11,56;1012,38;1575;0;0
2022-06-21 06:10:01;11,68;1012,37;1490;0;0
2022-06-21 06:11:01;11,66;1012,37;1497;0;0
2022-06-21 06:12:01;11,69;1012,29;1477;0;0
2022-06-21 06:13:02;11,64;1012,32;1503;0;0
2022-06-21 06:14:01;11,67;1012,19;1511;0;0
2022-06-21 06:15:01;11,71;1012,22;1487;0;0
2022-06-21 06:16:01;11,71;1012,24;1476;0;0
2022-06-21 06:17:01;11,7;1012,29;1412;0;0
2022-06-21 06:18:01;11,75;1012,18;1300;0;0
2022-06-21 06:19:01;11,85;1012,15;1219;0;0
2022-06-21 06:20:01;11,7;1012,18;1290;0;0
2022-06-21 06:21:01;11,84;1012,25;1481;0;0
2022-06-21 06:22:01;11,68;1012,25;1516;0;0
2022-06-21 06:23:01;11,76;1012,29;1568;0;0
2022-06-21 06:24:01;11,69;1012,25;1582;0;0
2022-06-21 06:25:01;11,74;1012,25;1574;0;0
2022-06-21 06:26:01;11,84;1012,25;1534;0;0
2022-06-21 06:27:01;11,77;1012,19;1551;0;0
2022-06-21 06:28:01;11,84;1012,21;1584;0;0
2022-06-21 06:29:01;11,88;1012,16;1574;0;0
2022-06-21 06:30:01;11,94;1012,23;1583;0;0
2022-06-21 06:31:01;12,05;1012,23;1578;0;0
2022-06-21 06:32:01;12,1;1012,21;1572;0;0
2022-06-21 06:33:01;12,06;1012,23;1579;0;0
2022-06-21 06:34:01;12,25;1012,18;1597;0;0
2022-06-21 06:35:01;12,47;1012,27;1611;0;0
2022-06-21 06:36:01;12,49;1012,3;1660;0;0
2022-06-21 06:37:01;12,4;1012,28;1628;0;0
2022-06-21 06:38:01;12,52;1012,29;1704;0;0
2022-06-21 06:39:01;12,62;1012,26;1773;0;0
2022-06-21 06:40:01;12,72;1012,26;1685;0;0
2022-06-21 06:41:01;12,93;1012,28;1649;0;0
2022-06-21 06:42:01;12,94;1012,36;1718;0;0
2022-06-21 06:43:01;13,04;1012,27;1747;0;0
2022-06-21 06:44:02;13,23;1012,29;1759;0;0
2022-06-21 06:45:01;13,46;1012,31;1799;0;0
2022-06-21 06:46:02;13,51;1012,26;1834;0;0
2022-06-21 06:47:01;13,62;1012,28;1748;0;0
2022-06-21 06:48:01;13,74;1012,4;1765;0;0
2022-06-21 06:49:01;13,86;1012,41;1886;0;0
2022-06-21 06:50:01;13,88;1012,36;1842;0;0
2022-06-21 06:51:01;14,08;1012,33;1815;0;0
2022-06-21 06:52:01;14,11;1012,27;1611;0;0
2022-06-21 06:53:01;14,14;1012,3;1462;0;0
2022-06-21 06:54:01;14,1;1012,34;1701;0;0
2022-06-21 06:55:01;14,18;1012,37;1648;0;0
2022-06-21 06:56:01;14,07;1012,21;1473;0;0
2022-06-21 06:57:01;14,08;1012,25;1748;0;0
2022-06-21 06:58:01;14,16;1012,21;1831;0;0
2022-06-21 06:59:01;14,13;1012,21;1837;0;0
2022-06-21 07:00:01;14,25;1012,25;1688;0;0
2022-06-21 07:01:02;14,19;1012,3;1719;0;0
2022-06-21 07:02:01;14,27;1012,3;1850;0;0
2022-06-21 07:03:01;14,09;1012,34;1821;0;0
2022-06-21 07:04:01;14,22;1012,2;1755;0;0
2022-06-21 07:05:01;14,35;1012,2;1729;0;0
2022-06-21 07:06:01;14,37;1012,24;1826;0;0
2022-06-21 07:07:01;14,5;1012,21;1917;0;0
2022-06-21 07:08:01;14,54;1012,24;1932;0;0
2022-06-21 07:09:02;14,41;1012,3;1735;0;0
2022-06-21 07:10:01;14,45;1012,38;1787;0;0
2022-06-21 07:11:01;14,72;1012,28;1826;0;0
2022-06-21 07:12:01;14,48;1012,29;1800;0;0
2022-06-21 07:13:01;14,3;1012,34;1829;0;0
2022-06-21 07:14:01;14,54;1012,33;1652;0;0
2022-06-21 07:15:01;14,47;1012,33;1712;0;0
2022-06-21 07:16:01;14,59;1012,31;1872;0;0
2022-06-21 07:17:01;14,35;1012,26;1541;0;0
2022-06-21 07:18:01;14,39;1012,28;1582;0;0
2022-06-21 07:19:01;14,25;1012,29;1682;0;0
2022-06-21 07:20:01;14,46;1012,32;1774;0;0
2022-06-21 07:21:01;14,5;1012,34;1736;0;0
2022-06-21 07:22:01;14,48;1012,33;1566;0;0
2022-06-21 07:23:01;14,29;1012,33;1689;0;0
2022-06-21 07:24:01;14,34;1012,31;1834;0;0
2022-06-21 07:25:01;14,55;1012,33;1693;0;0
2022-06-21 07:26:01;14,65;1012,37;1770;0;0
2022-06-21 07:27:02;14,68;1012,38;1966;0;0
2022-06-21 07:28:01;14,84;1012,28;1896;0;0
2022-06-21 07:29:01;15,08;1012,27;1677;0;0
2022-06-21 07:30:01;15,06;1012,38;1807;0;0
2022-06-21 07:31:01;15,12;1012,39;1667;0;0
2022-06-21 07:32:01;15,06;1012,32;1767;0;0
2022-06-21 07:33:01;14,89;1012,32;1749;0;0
2022-06-21 07:34:01;14,93;1012,27;1608;0;0
2022-06-21 07:35:01;14,74;1012,29;1851;0;0
2022-06-21 07:36:01;15,01;1012,36;1802;0;0
2022-06-21 07:37:01;14,88;1012,38;1617;0;0
2022-06-21 07:38:01;14,71;1012,38;1791;0;0
2022-06-21 07:39:02;14,76;1012,33;1844;0;0
2022-06-21 07:40:01;15,09;1012,38;1765;0;0
2022-06-21 07:41:01;14,94;1012,34;1766;0;0
2022-06-21 07:42:01;15,05;1012,33;1544;0;0
2022-06-21 07:43:01;15,02;1012,31;1715;0;0
2022-06-21 07:44:01;14,94;1012,41;1834;0;0
2022-06-21 07:45:01;15,29;1012,4;1805;0;0
2022-06-21 07:46:01;15,47;1012,34;1764;0;0
2022-06-21 07:47:02;15,48;1012,34;1791;0;0
2022-06-21 07:48:01;15,65;1012,31;1777;0;0
2022-06-21 07:49:01;15,72;1012,34;1771;0;0
2022-06-21 07:50:01;15,69;1012,36;1760;0;0
2022-06-21 07:51:01;15,75;1012,38;1521;0;0
2022-06-21 07:52:01;15,67;1012,33;1728;0;0
2022-06-21 07:53:01;15,88;1012,24;1755;0;0
2022-06-21 07:54:01;15,91;1012,3;1759;0;0
2022-06-21 07:55:01;15,95;1012,25;1762;0;0
2022-06-21 07:56:02;16,01;1012,25;1778;0;0
2022-06-21 07:57:01;15,95;1012,36;1886;0;0
2022-06-21 07:58:01;16,32;1012,36;1944;0;0
2022-06-21 07:59:02;16,26;1012,3;1859;0;0
2022-06-21 08:00:01;16,23;1012,29;1815;0;0
2022-06-21 08:01:01;16,47;1012,29;1835;0;0
2022-06-21 08:02:01;16,45;1012,29;1715;0;0
2022-06-21 08:03:01;15,97;1012,35;1637;0;0
2022-06-21 08:04:01;15,57;1012,33;1807;0;0
2022-06-21 08:05:01;15,53;1012,36;1509;0;0
2022-06-21 08:06:01;15,25;1012,35;1575;0;0
2022-06-21 08:07:01;15,32;1012,32;1771;0;0
2022-06-21 08:08:01;15,41;1012,4;1898;0;0
2022-06-21 08:09:01;15,45;1012,37;1664;0;0
2022-06-21 08:10:02;15,41;1012,35;1777;0;0
2022-06-21 08:11:01;15,4;1012,33;1782;0;0
2022-06-21 08:12:01;15,47;1012,31;1805;0;0
2022-06-21 08:13:01;15,63;1012,38;1799;0;0
2022-06-21 08:14:01;15,87;1012,37;1878;0;0
2022-06-21 08:15:01;15,74;1012,34;1810;0;0
2022-06-21 08:16:01;15,83;1012,35;1775;0;0
2022-06-21 08:17:01;16,2;1012,38;1771;0;0
2022-06-21 08:18:01;16,19;1012,36;1776;0;0
2022-06-21 08:19:01;16,32;1012,41;1825;0;0
2022-06-21 08:20:02;16,21;1012,3;1850;0;0
2022-06-21 08:21:02;16,3;1012,37;1831;2,79;0
2022-06-21 08:22:01;16,33;1012,36;1821;0;0
2022-06-21 08:23:01;16,44;1012,33;1859;0;0
2022-06-21 08:24:01;16,64;1012,35;1944;0;0
2022-06-21 08:25:02;16,9;1012,37;1844;0;0
2022-06-21 08:26:02;16,92;1012,32;1840;0;0
2022-06-21 08:27:01;16,94;1012,31;1892;0;0
2022-06-21 08:28:01;17,04;1012,31;1882;2,55;0
2022-06-21 08:29:01;17,23;1012,34;1966;0;0
2022-06-21 08:30:02;16,97;1012,31;2011;2,64;0
2022-06-21 08:31:02;16,91;1012,29;1908;0;0
2022-06-21 08:32:01;16,93;1012,3;1907;0;0
2022-06-21 08:33:01;16,89;1012,3;1965;0;0
2022-06-21 08:34:01;17,07;1012,33;1972;0;0
2022-06-21 08:35:01;17,21;1012,27;1991;0;0
2022-06-21 08:36:01;17,22;1012,4;1949;0;0
2022-06-21 08:37:01;17,19;1012,45;1874;0;0
2022-06-21 08:38:02;16,92;1012,45;1938;0;0
2022-06-21 08:39:01;17,05;1012,36;2062;0;0
2022-06-21 08:40:01;17,02;1012,36;1926;0;0
2022-06-21 08:41:01;17,1;1012,38;1988;0;0
2022-06-21 08:42:01;16,94;1012,41;1891;0;0
2022-06-21 08:43:01;17,09;1012,42;1855;0;0
2022-06-21 08:44:01;16,86;1012,4;2045;0;0
2022-06-21 08:45:01;16,73;1012,4;1918;0;0
2022-06-21 08:46:01;16,79;1012,42;1984;0;0
2022-06-21 08:47:01;16,7;1012,36;2002;0;0
2022-06-21 08:48:01;16,36;1012,44;2041;0;0
2022-06-21 08:49:01;16,54;1012,36;2039;0;0
2022-06-21 08:50:01;16,46;1012,46;2011;0;0
2022-06-21 08:51:01;16,48;1012,49;1945;0;0
2022-06-21 08:52:01;16,32;1012,45;1880;0;0
2022-06-21 08:53:01;16,22;1012,42;1990;0;0
2022-06-21 08:54:01;16,15;1012,46;2053;0;0
2022-06-21 08:55:01;16,07;1012,4;2142;0;0
2022-06-21 08:56:01;16,04;1012,41;2040;0;0
2022-06-21 08:57:01;16,19;1012,42;1913;0;0
2022-06-21 08:58:01;16,04;1012,46;2005;0;0
2022-06-21 08:59:01;15,82;1012,39;2159;0;0
2022-06-21 09:00:01;15,8;1012,41;2207;0;0
2022-06-21 09:01:01;15,71;1012,43;2183;0;0
2022-06-21 09:02:01;15,74;1012,46;2198;0;0
2022-06-21 09:03:01;15,92;1012,44;2334;0;0
2022-06-21 09:04:01;16,36;1012,47;2236;0;0
2022-06-21 09:05:01;16,35;1012,4;2161;0;0
2022-06-21 09:06:01;16,26;1012,44;2203;0;0
2022-06-21 09:07:01;16,18;1012,39;2327;0;0
2022-06-21 09:08:01;16,58;1012,4;2323;0;0
2022-06-21 09:09:01;16,71;1012,43;2312;0;0
2022-06-21 09:10:01;16,84;1012,43;2230;0;0
2022-06-21 09:11:01;16,88;1012,39;2047;0;0
2022-06-21 09:12:01;16,82;1012,49;2012;0;0
2022-06-21 09:13:02;16,73;1012,51;2101;0;0
2022-06-21 09:14:01;16,55;1012,51;2154;0;0
2022-06-21 09:15:01;16,33;1012,55;2096;0;0
2022-06-21 09:16:01;16,35;1012,47;2150;0;0
2022-06-21 09:17:02;16,27;1012,42;2157;0;0
2022-06-21 09:18:01;16,2;1012,38;2104;0;0
2022-06-21 09:19:01;16;1012,35;2056;0;0
2022-06-21 09:20:01;15,79;1012,41;2071;0;0
2022-06-21 09:21:02;16,12;1012,43;2173;0;0
2022-06-21 09:22:01;16,49;1012,48;2010;0;0
2022-06-21 09:23:01;16,59;1012,44;2046;0;0
2022-06-21 09:24:01;16,52;1012,37;2122;0;0
2022-06-21 09:25:02;16,36;1012,37;2145;0;0
2022-06-21 09:26:01;16,28;1012,41;2073;0;0
2022-06-21 09:27:01;16,35;1012,44;2060;0;0
2022-06-21 09:28:01;16,62;1012,45;2041;0;0
2022-06-21 09:29:01;16,84;1012,45;2019;0;0
2022-06-21 09:30:01;17,1;1012,35;1995;0;0
2022-06-21 09:31:01;17,53;1012,44;2008;0;0
2022-06-21 09:32:01;17,89;1012,36;2067;0;0
2022-06-21 09:33:01;18,3;1012,32;2089;0;0
2022-06-21 09:34:01;18,7;1012,36;2166;0;0
2022-06-21 09:35:01;18,83;1012,48;2325;0;0
2022-06-21 09:36:01;19,16;1012,4;2207;0;0
2022-06-21 09:37:02;19,07;1012,31;2063;0;0
2022-06-21 09:38:01;19,21;1012,38;1982;0;0